Simultaneous Nadir Overpasses (SNOs) Predictions

Prediction of SNOs between GOES-15 and FY3D Satellite Orbit:

Table of predicted SNOs for the next 14.0 days since TLE Epoch: 9/5/2020
Index Date Time (GOES-15) GOES-15 Lat,Lon FY3D Lat,Lon Distance(km) Time Diff (sec)
1 09/05/2020 22:06:45 0.08,-127.91 -0.03,-128.47 63.37 80
2 09/06/2020 21:45:08 0.08,-127.94 0.99,-123.89 462.17 80
3 09/08/2020 10:06:38 -0.08,-128.04 0.15,-129.09 118.92 80
4 09/09/2020 09:50:22 -0.08,-128.07 -0.87,-124.50 406.25 80
5 09/10/2020 22:12:00 0.09,-128.06 -0.28,-129.73 190.90 80
6 09/11/2020 21:50:24 0.09,-128.08 0.74,-125.15 333.65 80
7 09/13/2020 10:11:54 -0.10,-128.17 0.40,-130.35 249.03 80
8 09/14/2020 09:55:38 -0.10,-128.19 -0.63,-125.77 275.32 80
9 09/15/2020 22:17:16 0.11,-128.17 -0.53,-131.00 322.67 80
10 09/16/2020 21:55:39 0.11,-128.18 0.49,-126.41 201.35 80
11 09/18/2020 10:17:10 -0.11,-128.26 0.64,-131.61 382.18 80
